STARLINK-36956, 68009

Orbit data source: Space-Track

STARLINK-36956, 68009 is a payload satellite owned by SpaceX/Seattle (US) in LEO that was launched on Fri, 27 Feb 2026 UTC via an FALCON 9 launch vehicle from the Air Force Eastern Test Range (AFETR). Payload-class satellites include a variety of spacecraft equipped with specific instruments for various scientific and technological missions. These include communications satellites like Starlink; space stations such as the ISS; scientific satellites like the Hubble; Earth observation satellites from companies like Planet Labs, Umbra, and HawkEye 360; GPS; miniature CubeSats for education and research; and military/defense satellites.

Loading next visibility...
Identifier
68009, 2026-039Z
Orbit
LEO
Country
Flag of USUS
Related business
Manufacturer
SpaceX/Seattle
Mission
Operational Commercial Communications
Bus & Motor
STARLINK V2MO, Unknown motor
Mass
575 kg wet, ~530 kg dry
Launch date (UTC)
2026-02-27 (2 months ago)
Launch vehicle
FALCON 9
Launch site
Air Force Eastern Test Range (AFETR)
Object type
Payload
Rocket body
Debris
Shape & HBR
Box + 2 Pan, 17.7 m
Radar Cross Section
36.964 m²

Expand to show TLE details & history
Last TLE update: 6 hours ago

TLE from 6 hours ago
0 STARLINK-36956
1 68009U 26039Z   26119.49337435  .00020064  00000-0  73629-3 0  9992
2 68009  43.0019 121.9689 0001403 264.2930  95.7762 15.27595450  9471
Epoch: 2026-04-29T11:50Z
TLE epoch observation values (Epoch: 2026-04-29T11:50:27.543Z)
Latitude
-0.00001°
Longitude
86.90058°
Altitude
482.875 km
Speed
7.626 km/s
True Right ascension
08h 07m 52s
True Declination
0° 00' 00"
Sunlit
Object was in daylight at epoch
Visualization orbit readout
Latitude
Unknown
Longitude
Unknown
Altitude
Unknown
Speed
Unknown
Apparent Right ascension
Unknown
Apparent Declination
Unknown
Sunlit
N/A
Visualization observer readout
Local Sidereal Time
01:12:44
Azimuth
Unknown
Elevation
Unknown
Doppler factor
Unknown
Orbital elements
Apogee altitude
485.911 km
Perigee altitude
483.985 km
Semi-major axis
6,863.085 km
Eccentricity
0.00014
Inclination
43.0019°
RAAN
121.9689°
Arg. of periapsis
264.293°
True anomaly
95.7922°
Mean anomaly
95.7762°
Eccentric anomaly
95.7842°
Mean motion
3.81737 °/min
Orbital period
94.31 mins
BSTAR
0.00073629
Loading maneuver chart data...
Computing Atmospheric mass density...
Loading historical data...
Loading historical data...
Loading historical data...
Loading historical data...
Loading historical data...
Loading historical data...
Loading historical data...

Documentation

Showing up to 5 results
|